#timestamp,LO_Frequency,Hit,StdDev 
1686139215.4,286046998.7,N
1686139235.2,286046998.1,N
1686139255.0,286046998.2,N
1686139255.9,286046998.2,N
1686139275.8,286047001.1,N
1686139295.6,286046998.6,N
1686139315.4,286046998.3,N
1686139335.3,286046998.3,N
1686139355.1,286046996.9,N
1686139375.9,286046997.8,N
1686139395.7,286046997.4,N
1686139415.5,286046997.2,N
1686139435.4,286046997.4,N
1686139455.2,286046996.9,N
1686139475.0,286046997.1,N
1686139475.9,286046997.1,N
1686139495.8,286046999.3,N
1686139515.6,286046999.6,N
1686139535.5,286046997.1,N
1686139555.3,286046997.1,N
1686139575.1,286046997.2,N
1686139595.9,286046998.8,N
1686139615.7,286046998.9,N
1686139635.5,286046999.3,N
1686139655.4,286046999.1,N
1686139675.2,286046999.0,N
1686139695.0,286046998.9,N
1686139696.0,286046998.9,N
1686139715.8,286046998.3,N
1686139735.6,286046998.4,N
1686139755.5,286046999.1,N
1686139775.3,286046997.0,Y
1686139795.1,286047000.8,P
1686139815.9,286047002.4,N
1686139835.7,286046999.8,N
1686139855.6,286047001.9,N
1686139875.4,286046999.8,N
1686139895.2,286047000.8,N
1686139915.1,286047001.2,N
1686139916.0,286047001.2,N
1686139935.8,286047000.5,N
1686139955.6,286047001.0,N
1686139975.5,286046999.4,N
1686139995.3,286046997.1,N
1686140015.2,286046999.1,N
1686140035.9,286046999.6,N
1686140055.7,286046998.9,N
1686140075.6,286046998.3,N
1686140095.4,286046997.4,N
1686140115.2,286046997.8,N
1686140135.1,286046997.1,N
1686140136.0,286046997.1,N
1686140155.8,286046997.6,N
1686140175.7,286046994.9,Y
1686140195.5,286046996.9,P
1686140215.3,286046996.8,N
1686140235.2,286046997.8,N
1686140255.0,286046997.7,N
1686140255.9,286046997.7,N
1686140275.8,286046995.5,Y
1686140295.6,286046998.9,P
1686140315.4,286047000.9,N
1686140335.3,286047000.9,N
1686140355.1,286047001.0,N
1686140375.8,286047000.7,N
1686140395.7,286046998.8,N
1686140415.5,286047000.7,N
1686140435.4,286046999.9,N
1686140455.2,286047002.4,N
1686140475.0,286047000.4,N
1686140475.9,286047000.4,N
1686140495.8,286047001.1,N
1686140515.6,286047001.2,N
1686140535.4,286047000.4,N
1686140555.3,286046999.7,N
1686140575.1,286047002.1,N
1686140595.9,286047002.3,N
1686140615.7,286047002.6,N
1686140635.5,286047002.5,N
1686140655.4,286047001.3,N
1686140675.2,286047004.3,Y
1686140695.0,286047002.6,P
1686140695.9,286047002.6,N
1686140715.8,286046999.8,N
1686140735.6,286047002.3,N
1686140755.5,286046999.7,N
1686140775.3,286047002.7,N
1686140795.1,286047001.3,N
1686140815.9,286047002.6,N
1686140835.7,286047002.2,N
1686140855.5,286047002.8,N
1686140875.4,286046999.9,N
1686140895.2,286047000.2,N
1686140915.1,286046999.8,N
1686140916.0,286046999.8,N
1686140935.8,286047002.2,N
1686140955.6,286047000.2,N
1686140975.5,286046999.7,N
1686140995.3,286047002.1,N
1686141015.1,286047002.2,N
1686141035.9,286047002.3,N
1686141055.7,286047002.5,N
1686141075.6,286047002.3,N
1686141095.4,286047001.9,N
1686141115.2,286047002.0,N
1686141135.1,286047004.1,Y
1686141136.0,286047004.1,P
1686141155.8,286047002.6,N
1686141175.7,286047002.2,N
1686141195.5,286047002.1,N
1686141215.3,286047002.5,N
1686141235.2,286047002.6,Y
1686141255.0,286046998.6,P
1686141255.9,286046998.6,N
1686141275.8,286046998.6,N
1686141295.6,286046998.6,N
1686141315.4,286046998.2,N
1686141335.3,286046999.0,N
1686141355.1,286046998.5,N
1686141375.8,286046998.2,N
1686141395.7,286047001.0,N
1686141415.5,286046998.4,N
1686141435.4,286046998.1,N
1686141455.2,286047000.8,N
1686141475.0,286047000.5,N
1686141475.9,286047000.5,N
1686141495.8,286047002.7,N
1686141515.6,286047002.7,N
1686141535.4,286047002.2,N
1686141555.3,286047002.8,N
1686141575.1,286047000.2,N
1686141595.9,286047000.7,N
1686141615.7,286046999.9,N
1686141635.5,286047002.8,N
1686141655.4,286047002.7,N
1686141705.2,286047000.1,E
1686141715.2,286047000.2,N
1686141735.0,286047002.7,P
1686141735.9,286047002.7,N
1686141755.7,286047002.3,N
1686141775.6,286047000.1,N
1686141795.4,286046999.7,N
1686141815.3,286047002.6,N
1686141835.1,286047002.6,N
1686141836.0,286047002.6,N
1686141855.8,286047002.5,N
1686141875.7,286047002.8,N
1686141895.5,286047002.6,N
1686141915.3,286047000.2,N
1686141935.2,286047002.2,N
1686141955.0,286047002.1,N
1686141955.9,286047002.1,N
1686141975.8,286047002.3,N
1686141995.6,286047002.2,N
1686142015.4,286047001.8,N
1686142035.3,286047002.5,N
1686142055.1,286047002.2,N
1686142075.8,286047002.3,N
1686142095.7,286047001.6,N
1686142115.5,286047001.8,N
1686142135.4,286047004.4,Y
1686142155.2,286047000.6,P
1686142175.0,286047000.7,N
1686142176.0,286047000.7,N
1686142195.8,286046999.8,N
1686142215.6,286047001.0,N
1686142235.5,286047000.6,N
1686142255.3,286047000.4,N
1686142275.1,286046999.7,N
1686142295.9,286047002.1,Y
1686142315.7,286047000.1,P
1686142335.6,286047002.3,P
1686142355.4,286047002.8,N
1686142375.2,286046999.8,N
1686142395.1,286047002.4,N
1686142396.0,286047002.4,N
1686142415.8,286047002.7,N
1686142435.7,286047002.2,N
1686142455.5,286047002.7,N
1686142475.3,286046999.7,N
1686142495.2,286047000.0,N
1686142515.0,286047000.3,N
1686142515.9,286047000.3,N
1686142535.8,286046999.7,N
1686142555.6,286047002.4,N
1686142575.4,286047002.8,N
1686142595.3,286047002.8,N
1686142615.1,286046999.9,N
1686142635.9,286047000.0,N
1686142655.7,286047000.8,N
1686142675.5,286047001.0,N
1686142695.4,286047000.5,N
1686142715.2,286047000.6,N
1686142735.1,286047000.2,N
1686142736.0,286047000.2,N
1686142755.8,286047000.1,N
1686142775.6,286047000.1,N
1686142795.5,286047002.4,N
